x

Nantucket Sound (44020) Wave Buoy

3:50 - Mon 29th Aug 2016 All times are EDT. -4 hours from GMT.

  • Sig Wave height 1.0ft
  • Swell Direction
  • Peak Period 2s
  • Average Period 3s
  • Wind
    16mph, 18mph gusts
  • Sea Temp 74°f
  • Ar Temp 72°f
  • Sea Pressure 1019.5mb
  • Nantucket Sound
  • Nantucket Sound

More Historic Weather Station data

Upgrade to MSW Pro to gain access to the past 30 days of data for over 8000 Wavebouys and Weather Stations around the globe.

Join Pro

Comparision Forecast

View Surf forecast
   
Seg 08/29 3:50 1ft 2s 3s 16 18 mph 1019.5mb 74f 72f
2:50 1ft 2s 3s 16 18 mph 1020.1mb 73f 71f
1:50 1ft 2s 3s 13 16 mph 1020.6mb 73f 71f
12:50 1ft 15s 3s 13 16 mph 1020.9mb 74f 71f
Dom 08/28 11:50 1ft 15s 3s 13 16 mph 1021.3mb 75f 71f
10:50 1.3ft 15s 3s 11 13 mph 1021.8mb 75f 71f
9:50 1.3ft 14s 3s 11 13 mph 1022mb 75f 70f
8:50 1.3ft 3s 3s 13
mph
1021.8mb 74f 70f
7:50 1.3ft 14s 3s 13 16 mph 1021.6mb 75f 70f
6:50 1.3ft 3s 3s 13 16 mph 1021.9mb 75f 71f
5:50 1ft 3s 3s 13 16 mph 1022.4mb 76f 71f
4:50 1ft 3s 3s 13 16 mph 1023.1mb 76f 70f
3:50 1ft 3s 3s 11 13 mph 1023.6mb 75f 70f
2:50 1ft 8s 3s 11 13 mph 1024.1mb 75f 70f
1:50 1ft 3s 3s 13 16 mph 1024.1mb 75f 70f
12:50 0.7ft  -  3s 13 16 mph 1024.5mb 75f 70f
11:50 0.7ft  -  3s 13 16 mph 1024.7mb 75f 71f
10:50 1ft 16s 3s 11 13 mph 1025.1mb 75f 72f
9:50 1ft 4s 3s 11 13 mph 1025mb 75f 73f
8:50 0.7ft  -  4s 9 11 mph 1025.1mb 75f 73f
7:50 0.3ft  -  4s 7 9 mph 1025.2mb 74f 73f
6:50 0.3ft  -  4s 4
mph
1025mb 75f 72f
5:50 0.3ft  -  4s 2 4 mph 1024.4mb 75f 71f
4:50 0.3ft  -  4s 2
mph
1024.2mb 75f 71f
3:50 0.3ft  -  4s 2 4 mph 1023.9mb 75f 71f
2:50 0.3ft  -  5s 2
mph
1024.1mb 74f 70f
1:50 0.3ft  -  5s 4
mph
1024.4mb 74f 70f
12:50 0.3ft  -  4s 2 4 mph 1024.4mb 74f 71f
Sáb 08/27 11:50 0.3ft  -  4s 2
mph
1024.2mb 75f 71f
10:50 0.7ft  -  4s 4
mph
1024.2mb 75f 71f
9:50 0.7ft  -  4s 7
mph
1023.9mb 75f 71f
8:50 0.7ft  -  3s 9 11 mph 1022.9mb 75f 72f
7:50 1ft 2s 3s 7 9 mph 1022.3mb 75f 72f
6:50 1.3ft 3s 3s 11 16 mph 1021.7mb 75f 73f
5:50 1.3ft 3s 3s 13 16 mph 1021.5mb 75f 73f
4:50 1ft 3s 3s 13
mph
1021.6mb 76f 73f
3:50 1ft 3s 3s 13 16 mph 1021.3mb 76f 73f
2:50 1ft 3s 3s 13 18 mph 1021.4mb 76f 73f
1:50 1ft 3s 3s 11 13 mph 1021.4mb 75f 73f
12:50 1ft 3s 3s 13 16 mph 1021.4mb 75f 74f
11:50 1ft 2s 3s 9
mph
1021.6mb 75f 75f
10:50 1ft 5s 3s 9 11 mph 1021.5mb 75f 75f
9:50 1ft 3s 3s 13
mph
1021mb 75f 75f
8:50 1.3ft 3s 3s 13 18 mph 1020.3mb 75f 75f
7:50 1.3ft 3s 3s 13 16 mph 1019.9mb 74f 75f
6:50 1.3ft 3s 3s 13 18 mph 1019.3mb 74f 75f
5:50 1.3ft 3s 3s 13 18 mph 1018.2mb 75f 75f
4:50 1.3ft 3s 3s 13 16 mph 1017.8mb 75f 75f
3:50 0.7ft  -  3s 13 16 mph 1017.6mb 75f 76f
2:50 0.7ft  -  4s 11 13 mph 1017.3mb 75f 76f
1:50 0.7ft  -  4s 4
mph
1017mb 75f 75f
12:50 0.7ft  -  4s 4
mph
1016.5mb 75f 74f
Sex 08/26 11:50 0.7ft  -  4s 4
mph
1016.2mb 75f 74f
10:50 0.7ft  -  3s 4
mph
1015.7mb 75f 74f
9:50 1ft 5s 3s 7 9 mph 1015.5mb 75f 74f
8:50 1ft 3s 3s 9 11 mph 1015.1mb 75f 74f
7:50 1ft 3s 3s 9 11 mph 1014.8mb 75f 74f
6:50 1.3ft 3s 3s 11 13 mph 1014.7mb 75f 74f
5:50 1.3ft 3s 3s 16 18 mph 1014.2mb 75f 76f
4:50 1.6ft 3s 3s 16 18 mph 1014.1mb 75f 75f
3:50 1.3ft 3s 3s 20 22 mph 1013.7mb 75f 76f
2:50 1.3ft 2s 3s 18 20 mph 1014mb 76f 75f
1:50 1.6ft 3s 3s 18 22 mph 1014.5mb 76f 76f
12:50 1.6ft 3s 3s 18 20 mph 1014.6mb 75f 76f
11:50 1.6ft 3s 3s 18 20 mph 1014.6mb 75f 76f
10:50 1.3ft 3s 3s 13 18 mph 1015.1mb 75f 75f
9:50 1.3ft 3s 3s 16 18 mph 1015.3mb 75f 75f
8:50 1.3ft 3s 3s 16 20 mph 1015.4mb 75f 75f
7:50 1.3ft 3s 3s 16 20 mph 1015.7mb 74f 74f
6:50 1.6ft 3s 3s 16 18 mph 1015.6mb 74f 74f
5:50 1.3ft 3s 3s 18 22 mph 1015.1mb 74f 74f
4:50 1.3ft 3s 3s 20 22 mph 1015mb 74f 74f
3:50 1.3ft 3s 3s 18 20 mph 1015.2mb 75f 74f
2:50 1.3ft 3s 3s 18 20 mph 1015.7mb 75f 74f
1:50 1.3ft 3s 3s 18 22 mph 1015.8mb 75f 74f
12:50 1.6ft 3s 3s 18 22 mph 1016.3mb 74f 74f
Qui 08/25 11:50 1.3ft 3s 3s 18 20 mph 1016.6mb 74f 74f
10:50 1.3ft 3s 3s 18 20 mph 1016.9mb 74f 74f
9:50 1.3ft 3s 3s 16 20 mph 1017.1mb 74f 73f
8:50 1.3ft 3s 3s 18 20 mph 1017.2mb 75f 73f
7:50 1.3ft 3s 3s 16 18 mph 1017mb 75f 74f
6:50 1.6ft 3s 3s 18 20 mph 1016.6mb 75f 74f
5:50 1.3ft 3s 3s 18 20 mph 1017mb 75f 74f
4:50 1.3ft 3s 3s 18 22 mph 1016.9mb 75f 74f
3:50 1.3ft 3s 3s 16 18 mph 1017.7mb 75f 74f
2:50 1.3ft 3s 3s 16 18 mph 1018.5mb 75f 74f
1:50 1.3ft 3s 3s 18 20 mph 1019mb 75f 74f
12:50 1.6ft 3s 3s 18 22 mph 1019.1mb 75f 74f
11:50 1.3ft 2s 3s 16 20 mph 1019.6mb 74f 74f
10:50 1.3ft 3s 3s 16 18 mph 1020.2mb 74f 74f
9:50 1.3ft 3s 3s 16 18 mph 1020.5mb 74f 73f